Flag for Germany Weather past 2 weeks in Jena, Thuringia, Germany

Now
64 °F

Partly sunny.


Feels Like: 64 °F
Forecast: 56 / 75 °F
Wind: 7 mph from Northwest

Location: Erfurt-Bindersleben

Current Time: Jul 30, 2014 at 10:34:03 PM

Latest Report: Jul 30, 2014 at 9:50 PM


Visibility: N/A

Pressure: 29.92 "Hg

Humidity: 88%

Dew point: 61 °F

Location of JenaLocation

Historic Weather in Jena — Graph

°F

Jena temperature yesterday

Maximum temperature yesterday: 75 °F (at 2:20 PM)
Minimum temperature yesterday: 63 °F (at 1:20 AM)
Average temperature yesterday: 68 °F

Past Weeks' High & Low Weather Summary

 TemperatureHumidityPressure
High88 °F (Jul 19, 3:20 PM)100% (Jul 21, 4:50 AM)30.21 "Hg (Jul 21, 4:50 AM)
Low55 °F (Jul 16, 4:20 AM)25% (Jul 19, 6:20 PM)29.74 "Hg (Jul 29, 10:20 PM)
Average69 °F72%29.98 "Hg
* Reported Jul 15 9:20 PM — Jul 30 9:20 PM, Jena, Weather by CustomWeather, © 2014

Note: Actual official high and low records may vary slightly from our data, if they occured in-between our weather recording intervals... More about our weather records

Advertising

Jena weather history for previous 24 hours

 ConditionsComfort  
Time TempWeatherWind HumidityBarometerVisibility
9:20 PM
Jul 30
64 °FPartly sunny.8 mph88%29.92 "HgN/A
8:50 PM64 °FPartly sunny.8 mph88%29.89 "HgN/A
8:20 PM66 °FBroken clouds.12 mph83%29.89 "HgN/A
7:50 PM66 °FBroken clouds.12 mph83%29.89 "HgN/A
7:20 PM66 °FPartly sunny.12 mph83%29.89 "HgN/A
6:50 PM66 °FPartly sunny.12 mph83%29.86 "HgN/A
6:20 PM66 °FBroken clouds.13 mph83%29.86 "HgN/A
5:50 PM66 °FBroken clouds.13 mph83%29.86 "HgN/A
5:20 PM66 °FBroken clouds.10 mph83%29.86 "HgN/A
4:50 PM66 °FScattered showers. Broken clouds.3 mph88%29.86 "HgN/A
4:20 PM64 °FSprinkles. Broken clouds.5 mph94%29.83 "HgN/A
3:50 PM66 °FSprinkles. Broken clouds.9 mph88%29.86 "HgN/A
3:20 PM68 °FSprinkles. Partly sunny.6 mph88%29.83 "HgN/A
2:50 PM68 °FSprinkles. Broken clouds.10 mph83%29.83 "HgN/A
2:20 PM68 °FSprinkles. Broken clouds.7 mph83%29.83 "HgN/A
1:50 PM68 °FBroken clouds.12 mph83%29.83 "HgN/A
1:20 PM68 °FBroken clouds.13 mph83%29.80 "HgN/A
12:50 PM68 °FBroken clouds.12 mph83%29.80 "HgN/A
12:20 PM70 °FBroken clouds.8 mph83%29.80 "HgN/A
11:50 AM70 °FBroken clouds.8 mph78%29.80 "HgN/A
11:20 AM68 °FBroken clouds.9 mph83%29.80 "HgN/A
10:50 AM68 °FBroken clouds.7 mph88%29.80 "HgN/A
10:20 AM68 °FBroken clouds.6 mph88%29.80 "Hg5 mi
9:50 AM66 °FBroken clouds.7 mph94%29.80 "Hg4 mi
9:20 AM66 °FPartly sunny.5 mph94%29.77 "Hg4 mi
8:50 AM66 °FPartly sunny.5 mph94%29.77 "Hg4 mi
8:20 AM66 °FPartly sunny.6 mph94%29.77 "Hg4 mi
7:50 AM64 °FPartly sunny.5 mph100%29.77 "Hg4 mi
7:20 AM64 °FPartly sunny.5 mph94%29.77 "Hg4 mi
6:50 AM64 °FBroken clouds.5 mph94%29.77 "Hg4 mi
6:20 AM64 °FPartly cloudy.5 mph94%29.74 "Hg4 mi
5:50 AM64 °FLight rain. Passing clouds.5 mph94%29.77 "Hg4 mi
5:20 AM64 °FLight rain. Passing clouds.2 mph100%29.77 "Hg4 mi
4:50 AM64 °FPassing clouds.3 mph94%29.77 "Hg4 mi
4:20 AM64 °FPassing clouds.5 mph100%29.74 "Hg4 mi
3:50 AM64 °FPassing clouds.3 mph100%29.74 "Hg4 mi
3:20 AM64 °FFog.3 mph100%29.74 "Hg3 mi
2:50 AM64 °FFog.3 mph100%29.74 "Hg3 mi
2:20 AM66 °FLight rain. Fog.5 mph94%29.74 "Hg2 mi
1:50 AM66 °FLight rain. Fog.3 mph94%29.74 "Hg2 mi
1:20 AM66 °FSprinkles. Fog.No wind94%29.77 "Hg2 mi
12:50 AM66 °FPartly cloudy.3 mph94%29.77 "Hg5 mi
12:20 AM66 °FPartly cloudy.8 mph94%29.77 "HgN/A
11:50 PM
Jul 29
64 °FPartly cloudy.8 mph100%29.77 "HgN/A
11:20 PM64 °FPassing clouds.7 mph100%29.77 "HgN/A
10:50 PM64 °FSprinkles. Partly cloudy.7 mph100%29.77 "HgN/A
10:20 PM64 °FThundershowers. Partly cloudy.9 mph100%29.74 "HgN/A
Weather by CustomWeather, © 2014

See weather overviewHow to use our weather pages